TimeAKDT,TemperatureF,Dew PointF,Humidity,Sea Level PressureIn,VisibilityMPH,Wind Direction,Wind SpeedMPH,Gust SpeedMPH,PrecipitationIn,Events,Conditions,WindDirDegrees,DateUTC
12:53 AM,46.9,46.0,97,30.22,3.0,ESE,4.6,-,0.00,Rain,Light Rain,110,2012-10-07 08:53:00
1:53 AM,46.9,46.9,100,30.23,4.0,NE,5.8,-,0.01,,Overcast,50,2012-10-07 09:53:00
2:53 AM,48.0,46.9,96,30.24,10.0,NE,8.1,-,0.00,,Overcast,50,2012-10-07 10:53:00
3:53 AM,48.9,48.0,97,30.24,10.0,NE,6.9,-,N/A,,Overcast,40,2012-10-07 11:53:00
4:53 AM,50.0,48.0,93,30.23,10.0,NE,9.2,-,N/A,,Overcast,40,2012-10-07 12:53:00
5:53 AM,50.0,48.0,93,30.23,10.0,NE,9.2,-,N/A,,Overcast,40,2012-10-07 13:53:00
6:53 AM,50.0,48.0,93,30.23,10.0,NE,8.1,-,N/A,,Overcast,50,2012-10-07 14:53:00
7:53 AM,51.1,48.9,92,30.23,10.0,SSE,5.8,-,N/A,,Overcast,150,2012-10-07 15:53:00
8:53 AM,51.1,48.9,92,30.24,10.0,SSE,9.2,-,N/A,,Overcast,150,2012-10-07 16:53:00
9:53 AM,52.0,48.9,89,30.26,10.0,SE,10.4,-,N/A,,Mostly Cloudy,130,2012-10-07 17:53:00
10:53 AM,52.0,50.0,93,30.27,10.0,ESE,8.1,-,N/A,,Mostly Cloudy,110,2012-10-07 18:53:00
11:53 AM,53.1,51.1,93,30.28,10.0,ESE,11.5,-,N/A,,Mostly Cloudy,120,2012-10-07 19:53:00
12:53 PM,54.0,50.0,86,30.28,10.0,SE,8.1,-,N/A,,Overcast,130,2012-10-07 20:53:00
1:53 PM,53.1,48.9,86,30.28,10.0,Variable,3.5,-,N/A,,Overcast,0,2012-10-07 21:53:00
2:53 PM,54.0,50.0,86,30.27,10.0,ESE,11.5,-,N/A,,Overcast,120,2012-10-07 22:53:00
3:53 PM,53.1,48.9,86,30.27,10.0,ENE,13.8,18.4,N/A,,Mostly Cloudy,60,2012-10-07 23:53:00
4:53 PM,51.1,48.0,89,30.25,10.0,NNE,13.8,-,N/A,,Mostly Cloudy,30,2012-10-08 00:53:00
5:02 PM,50.0,48.2,94,30.25,10.0,NNE,15.0,-,N/A,,Mostly Cloudy,20,2012-10-08 01:02:00
5:53 PM,52.0,48.0,86,30.24,10.0,NNE,8.1,-,N/A,,Mostly Cloudy,20,2012-10-08 01:53:00
6:22 PM,53.6,48.2,82,30.23,10.0,SSE,11.5,-,N/A,,Mostly Cloudy,150,2012-10-08 02:22:00
6:53 PM,53.1,48.0,83,30.24,10.0,SE,8.1,-,N/A,,Mostly Cloudy,140,2012-10-08 02:53:00
7:53 PM,50.0,46.9,89,30.25,10.0,Variable,5.8,-,N/A,,Mostly Cloudy,0,2012-10-08 03:53:00
8:15 PM,48.2,46.4,93,30.25,10.0,Variable,5.8,-,N/A,,Mostly Cloudy,0,2012-10-08 04:15:00
8:53 PM,48.9,46.9,93,30.25,10.0,North,9.2,-,N/A,,Mostly Cloudy,10,2012-10-08 04:53:00
9:53 PM,48.0,46.0,93,30.25,10.0,NNE,5.8,-,N/A,,Mostly Cloudy,20,2012-10-08 05:53:00
10:53 PM,46.9,46.0,97,30.26,10.0,NNW,5.8,-,N/A,,Mostly Cloudy,330,2012-10-08 06:53:00
11:53 PM,46.9,46.0,97,30.26,10.0,Calm,Calm,-,N/A,,Mostly Cloudy,0,2012-10-08 07:53:00